"Pseudo-MPEC" for C0MLYW2

Created 2019 May 24 15:07:09 UT using Find_Orb

Click here for an explanation of pseudo-MPECs

 
 Astrometry: 
     C0MLYW2  C2019 05 14.28783 15 07 24.36 +00 26 09.7    ~5E87 21.9 GVNEOCPG96
     C0MLYW2  C2019 05 14.29345 15 07 24.11 +00 26 05.2    ~5E87 21.4 GVNEOCPG96
     C0MLYW2  C2019 05 14.29906 15 07 23.87 +00 26 00.6    ~5E87 20.7 GVNEOCPG96
     C0MLYW2  C2019 05 14.30467 15 07 23.62 +00 25 56.3    ~5E87 21.4 GVNEOCPG96
     C0MLYW2  C2019 05 14.35807615 07 21.15 +00 25 15.5    ~5E9b 21.7 GVNEOCPH01
     C0MLYW2  C2019 05 14.37507815 07 20.39 +00 25 02.6    ~5E9b 21.2 GVNEOCPH01
     C0MLYW2  C2019 05 14.38018715 07 20.17 +00 24 58.8    ~5E9b 21.1 GVNEOCPH01
     C0MLYW2  C2019 05 14.38870715 07 19.80 +00 24 52.4    ~5E9b 21.4 GVNEOCPH01
     C0MLYW2  C2019 05 14.39880 15 07 19.43 +00 24 45.3    ~5EAM 21.1 GVNEOCPI52
     C0MLYW2  C2019 05 14.40297 15 07 19.23 +00 24 42.1    ~5EAM 20.5 GVNEOCPI52
     C0MLYW2  C2019 05 14.40713 15 07 19.06 +00 24 39.0    ~5EAM 21.1 GVNEOCPI52
     C0MLYW2  C2019 05 14.41130 15 07 18.87 +00 24 35.9    ~5EAM 20.9 GVNEOCPI52
     C0MLYW2  C2019 05 14.41547 15 07 18.69 +00 24 32.7    ~5EAM 20.8 GVNEOCPI52
     C0MLYW2 |C2019 05 15K8g;!C05R@AONB3N^.1Y;Z_`7Q98mac`NYaqiQ#/LR8H?fK$t67i807
     C0MLYW2 |C2019 05 15qv*.'Ct*ZXwv)f',PS9h!X.L6\='L4#Vv^yP3]nmokCx2J^WQ^3d807
     C0MLYW2 |C2019 05 15F9T(V\.D9@xqq1T?X#eUQ:m8E+K/Qdd3AFBe_:`721H@P'D;]ylc807
     C0MLYW2  C2019 05 15.23509 15 06 50.00 +00 13 53.5    ~5F6q 20.1 GVNEOCPI52
     C0MLYW2  C2019 05 15.23931 15 06 49.78 +00 13 49.3    ~5F6q 21.5 GVNEOCPI52
     C0MLYW2  C2019 05 15.24354 15 06 49.59 +00 13 45.9    ~5F6q 21.1 GVNEOCPI52
     C0MLYW2 |C2019 05 22m9!9DOk@cf@_+AstrometryZykqeV@,-G*^)IGQb#Da)F6NgS:-l807
     C0MLYW2 |C2019 05 22gFE_1YqcZUe_h?jQBredacted;4lZ\T!jIc\I*\niHJ?3\uS4A@X807
     C0MLYW2 |C2019 05 22LlrBUQ(EE[#OKsfvuclick_c2428,Z#L7ESherelv5kP4LScjY\0807
     C0MLYW2 KC2019 05 23U2pD*50-'qAEtn\s!(pjs$.ADg$Uvj%:h/)xp0I80C`F=;)g+VAc691
     C0MLYW2 KC2019 05 23VO*!b08,5-txjMIUv;e@!e7pnXUKy[)6y?FlK5yF4Cs7xIR=i-)Z691
     C0MLYW2 KC2019 05 23#w8XlP^u,NtKOfQd?QRc$i;MAYqNbQ+9D=p6G.eT\9Y1dPy;(b?r691
     C0MLYW2 KC2019 05 23XGm7vSo'lmy]FJTa4rBRun+8gWp4J-RF`(,I[#-'M/6h%J;!V=wJL01
     C0MLYW2 KC2019 05 23H5l%+*l3P,52lfor8moyOwceeexplanationhijEDgJFLavVS/`9L01
     C0MLYW2 KC2019 05 23xM+7t!6IRyh=BWx2WBy'hUwnsJI]eb[8mL2H=6p$86pJm8#NZX%OL01
     C0MLYW2 pC2019 05 24NRSw59K0-wC/:Y017(#MxNtjQJ0'S8Z-6o%O@66r3fF0Q]lUeD)_L01
     C0MLYW2  C2019 05 24.27522 15 01 15.48 -02 23 44.4    ~5O77 21.3 GVNEOCPI52
     C0MLYW2  C2019 05 24.27761 15 01 15.40 -02 23 47.1    ~5O77 21.5 GVNEOCPI52
     C0MLYW2  C2019 05 24.27964 15 01 15.30 -02 23 50.1    ~5O77 21.0 GVNEOCPI52
     C0MLYW2  C2019 05 24.28243 15 01 15.18 -02 23 53.4    ~5O77 20.8 GVNEOCPI52
     C0MLYW2  C2019 05 2444b8Dil7#SMsXVmHG?[G,'1]?#8*!ui50+'.uMERLK9]s;*8w+xXF52
     C0MLYW2  C2019 05 24\wsN't$Kc4Vjv+rB^xHck+\-iO^t'p6=n/lO)JF^174/0aY-Tn.)F52
     C0MLYW2  C2019 05 24,(1s(J\tfxTf\e#K(f[\(ni3/]u8C##EP,p3ZpSY$?ojwtL=VbEJF52

Station data:
(691) Steward Observatory, Kitt Peak - Spacewatch  (N31.962174 W111.600327)
   US/Arizona.  Observer J. V. Scotti. 0.9-m f/3 reflector + CCD.
(807) Cerro Tololo Observatory, La Serena  (S30.169136 W70.805900)  Chile.
(F52) Pan-STARRS 2, Haleakala  (N20.707384 W156.255910)  US/Hawaii. 1.8-m
   Ritchey-Chrétien + CCD.
(G96) Mt. Lemmon Survey  (N32.442754 W110.788720)  US/Arizona.  Observers T.
   A. Pruyne, B. M. Africano, E. J. Christensen, G. A. Farneth, D. C. Fuls,
   A. R. Gibbs, A. D. Grauer, H. Groeller, J. A. Johnson, R. A. Kowalski, S.
   M. Larson, G. J. Leonard, R. L. Seaman, F. C. Shelly. 1.5-m reflector +
   10K CCD.
(H01) Magdalena Ridge Observatory, Socorro  (N33.984833 W107.189333)  US/New
   Mexico.  Observers W. H. Ryan, E. V. Ryan. Measurer W. H. Ryan. 2.4-m
   f/8.9 reflector + CCD.
(I52) Steward Observatory, Mt. Lemmon Station  (N32.442547 W110.788920)
   US/Arizona.  Observers T. A. Pruyne, B. M. Africano, E. J. Christensen, G.
   A. Farneth, D. C. Fuls, A. R. Gibbs, A. D. Grauer, H. Groeller, J. A.
   Johnson, R. A. Kowalski, S. M. Larson, G. J. Leonard, R. L. Seaman, F. C.
   Shelly. 1.0-m reflector + CCD.
(L01) Višnjan Observatory, Tičan  (N45.290900 E13.749300)  Croatia.
   Observers K. Korlević, E. Pettarin. Measurer E. Pettarin. 1.0-m f/2.9
   reflector + CCD.

Orbital elements:  C0MLYW2
   Perihelion 2019 Jul 9.357624 +/- 0.0349 TT =  8:34:58 (JD 2458673.857624)
Epoch 2019 May 24.0 TT = JDT 2458627.5   Earth MOID: 0.2078   AutoNEOCP
M 347.92808926 +/- 0.050            (J2000 ecliptic)
n   0.26040831 +/- 0.00127          Peri.  197.80953 +/- 0.044
a   2.42865681 +/- 0.00793          Node    79.20972 +/- 0.018
e   0.4982488 +/- 0.00154           Incl.    9.52405 +/- 0.019
P   3.78                   H 22.2   G  0.15   U  8.3  
q 1.21858124 +/- 0.000285    Q 3.63873239 +/- 0.0155
From 36 observations 2019 May 14-24; mean residual 0".25
Residuals in arcseconds: 
190514 G96  .14-  .52+    190514 I52  .17-  .08+    190523 691  .29+  .05-    
190514 G96  .09-  .25+    190515 807  .02-  .13-    190523 L01  .04+  .04-    
190514 G96  .11+  .12-    190515 807  .06-  .12-    190523 L01  .01+  .48-    
190514 G96  .15+  .19-    190515 807  .05-  .08-    190523 L01  .88-  .17+    
190514 H01  .07+  .11-    190515 I52  .58+  .55+    190524 L01  .19-  .70+    
190514 H01  .13-  .13-    190515 I52  .14+  .27-    190524 I52  .18-  .47-    
190514 H01  .08-  .06-    190515 I52  .15+  .28-    190524 I52  .22+  .06-    
190514 H01  .08-  .00     190522 807  .22+  .20-    190524 I52  .08+  .42-    
190514 I52  .14+  .01+    190522 807  .00   .04-    190524 I52  .15+  .10-    
190514 I52  .15-  .02-    190522 807  .42-  .08+    190524 F52  .08+  .04+    
190514 I52  .00   .04+    190523 691  .20-  .38+    190524 F52  .16+  .15+    
190514 I52  .16-  .11+    190523 691  .28+  .07+    190524 F52  .16+  .22+    

Ephemerides (geocentric):
Date (UTC) HH   RA              Dec         delta   r     elong  mag " sig PA
---- -- -- --  -------------   -----------  ------ ------ -----  --- ---- ---
2019 05 24 15  15 01 03.370   -02 31 07.01  .32400 1.3158 156.3 21.3 .118  93
2019 05 24 16  15 01 01.919   -02 32 02.10  .32386 1.3156 156.3 21.3 .124  94
2019 05 24 17  15 01 00.470   -02 32 57.30  .32372 1.3154 156.2 21.3 .131  94
2019 05 24 18  15 00 59.022   -02 33 52.59  .32358 1.3153 156.2 21.3 .137  94
2019 05 24 19  15 00 57.576   -02 34 47.99  .32344 1.3151 156.2 21.3 .144  94
2019 05 24 20  15 00 56.132   -02 35 43.48  .32331 1.3149 156.2 21.3 .150  94
2019 05 24 21  15 00 54.689   -02 36 39.08  .32317 1.3148 156.1 21.3 .157  94
2019 05 24 22  15 00 53.247   -02 37 34.78  .32303 1.3146 156.1 21.3 .164  94
2019 05 24 23  15 00 51.808   -02 38 30.58  .32289 1.3144 156.1 21.3 .171  94
2019 05 25 00  15 00 50.370   -02 39 26.48  .32275 1.3143 156.1 21.3 .178  95
2019 05 25 01  15 00 48.933   -02 40 22.48  .32262 1.3141 156.0 21.3 .185  95
2019 05 25 02  15 00 47.498   -02 41 18.59  .32248 1.3139 156.0 21.3 .192  95
2019 05 25 03  15 00 46.065   -02 42 14.80  .32234 1.3138 156.0 21.3 .199  95
2019 05 25 04  15 00 44.634   -02 43 11.10  .32221 1.3136 156.0 21.3 .206  95
2019 05 25 05  15 00 43.204   -02 44 07.51  .32207 1.3134 155.9 21.3 .213  95
2019 05 25 06  15 00 41.775   -02 45 04.02  .32193 1.3133 155.9 21.3 .220  95
2019 05 25 07  15 00 40.349   -02 46 00.63  .32180 1.3131 155.9 21.3 .228  95
2019 05 25 08  15 00 38.924   -02 46 57.35  .32166 1.3129 155.9 21.3 .235  95
2019 05 25 09  15 00 37.501   -02 47 54.16  .32153 1.3128 155.8 21.3 .243  95
2019 05 25 10  15 00 36.080   -02 48 51.08  .32139 1.3126 155.8 21.3 .250  95
2019 05 25 11  15 00 34.660   -02 49 48.09  .32126 1.3125 155.8 21.3 .258  95
2019 05 25 12  15 00 33.242   -02 50 45.21  .32112 1.3123 155.8 21.3 .265  95
2019 05 25 13  15 00 31.826   -02 51 42.43  .32099 1.3121 155.7 21.3 .273  95
2019 05 25 14  15 00 30.412   -02 52 39.76  .32085 1.3120 155.7 21.3 .281  95
2019 05 25 15  15 00 28.999   -02 53 37.18  .32072 1.3118 155.7 21.3 .289  95
2019 05 25 16  15 00 27.588   -02 54 34.71  .32058 1.3116 155.7 21.3 .296  95
2019 05 25 17  15 00 26.179   -02 55 32.33  .32045 1.3115 155.6 21.3 .304  95
2019 05 25 18  15 00 24.772   -02 56 30.06  .32032 1.3113 155.6 21.3 .312  95
2019 05 25 19  15 00 23.367   -02 57 27.89  .32018 1.3111 155.6 21.3 .321  95
2019 05 25 20  15 00 21.964   -02 58 25.82  .32005 1.3110 155.6 21.3 .329  95
2019 05 25 21  15 00 20.562   -02 59 23.86  .31992 1.3108 155.5 21.3 .337  95
2019 05 25 22  15 00 19.162   -03 00 21.99  .31978 1.3107 155.5 21.3 .345  95
2019 05 25 23  15 00 17.764   -03 01 20.23  .31965 1.3105 155.5 21.3 .353  95
2019 05 26 00  15 00 16.368   -03 02 18.57  .31952 1.3103 155.5 21.3 .362  95
2019 05 26 01  15 00 14.974   -03 03 17.01  .31939 1.3102 155.4 21.3 .370  94
2019 05 26 02  15 00 13.582   -03 04 15.56  .31925 1.3100 155.4 21.3 .379  94
2019 05 26 03  15 00 12.192   -03 05 14.20  .31912 1.3098 155.4 21.3 .387  94
2019 05 26 04  15 00 10.803   -03 06 12.95  .31899 1.3097 155.4 21.3 .396  94
2019 05 26 05  15 00 09.417   -03 07 11.80  .31886 1.3095 155.3 21.3 .405  94
2019 05 26 06  15 00 08.033   -03 08 10.75  .31873 1.3094 155.3 21.3 .414  94
2019 05 26 07  15 00 06.650   -03 09 09.80  .31860 1.3092 155.3 21.3 .422  94
2019 05 26 08  15 00 05.270   -03 10 08.95  .31846 1.3090 155.3 21.3 .431  94
2019 05 26 09  15 00 03.891   -03 11 08.21  .31833 1.3089 155.2 21.3 .440  94
2019 05 26 10  15 00 02.515   -03 12 07.57  .31820 1.3087 155.2 21.3 .449  94
2019 05 26 11  15 00 01.140   -03 13 07.03  .31807 1.3086 155.2 21.3 .458  94
2019 05 26 12  14 59 59.768   -03 14 06.59  .31794 1.3084 155.2 21.3 .468  94
2019 05 26 13  14 59 58.397   -03 15 06.25  .31781 1.3082 155.1 21.3 .477  94
2019 05 26 14  14 59 57.029   -03 16 06.02  .31768 1.3081 155.1 21.3 .486  94